星链-1876 (STARLINK-1876 )

导读

STARLINK-1876是美国太空探索技术公司(SpaceX)星链星座的成员,于2020年11月25日在美国发射升空,属于星链星座低轨互联网卫星组网的一环。星链星座旨在构建全球卫星互联网,为全球用户提供高速宽带网络服务,该卫星入轨后承担部分全球通信覆盖的任务。

基本信息
目录编号:
47161
目录名称:
STARLINK-1876
国际标识:
2020-088AR
轨道中心:
EARTH
卫星名称:
星链-1876
卫星全名:
星链-1876 (STARLINK-1876 )
卫星状态:
已陨落 最后检测时间 2026-07-06
发射日期:
2020-11-25 UTC
国别 :
美国 (US)
星等 :
--
该卫星已列入 空间交会检测服务 Space Conjunction Data Service (SCDS) ,当前飞行风险评估等级: 无高风险
轨道信息
数据来源 国际轨道数据
星历时间: 2026-07-07T03:16:23+0800
轨道信息已过期66天
半长轴: 6526.434km
偏心率: 0.0010951
轨道倾角: 53.026°
近地点辐角 261.741°
升交点赤经 33.097°
平近点角 98.240°
近地点: 141.149km
远地点: 155.445km
周期: 87.453分钟
每日圈数: 16.46603
详细信息
固有亮度:
5
最大亮度:
2.5
卫星平台:
Starlink V1.0
覆盖范围:
全球
运营商:
太空探索技术公司
运营商所在国:
美国
制造商(研发单位):
太空探索技术公司
制造商所在国:
美国
使用方式:
暂无
卫星简介
星链(Starlink)计划是由太空探索技术公司(SpaceX)提出的一个巨型低轨卫星互联网星座项目,计划在2019年至2024年间在太空搭建由约1.2万颗卫星组成的“星链”网络,其中1584颗将部署在地球上空550千米处的近地轨道,并从2020年开始工作。该卫星仍在工作。
与全量物体交会距离演化趋势
与全量物体交会风险概率演化趋势